Location: Newark
(54.8972°N, 99.8189°W)
Time: 11:18:21
(UTC+00:00)

Transit 2A - Pass Details

Date: 20 November 2019
Orbit: 602 x 957 km, 66.7° (Epoch: 05 December)

Event Time Altitude Azimuth Distance (km) Brightness Sun altitude
Rises 23:13:49 0° 302° (WNW) 2,945 9.5 -6.4°
Reaches altitude 10° 23:16:46 10° 321° (NW) 1,997 8.4 -6.8°
Maximum altitude 23:19:54 18° 6° (N) 1,495 7.2 -7.2°
Drops below altitude 10° 23:22:59 10° 51° (NE) 1,957 7.5 -7.6°
Enters shadow 23:23:15 - 54° (NE) 2,028 7.6 -7.6°
